User: anonymous   Login
Location: Irma
(52.9170°N, 111.2330°W)
Time: 13:01:25
(UTC-07:00)
Language:

Meteor 1-24 Rocket - Orbit

View from above orbital plane
View from above orbital plane
View from above satellite
View from above satellite

Ground track
Ground track

The orbit data is extracted from the following two-line orbital elements,

1 08800U 76032B   15028.50253799  .00000090  00000-0  41379-4 0  2181
2 08800 081.2547 344.2972 0096592 129.7231 008.5556 14.10005391995480
Epoch (UTC): 28 January 2015 12:03:39
Eccentricity: 0.0096592
inclination: 81.2547°
perigee height: 789 km
apogee height: 929 km
right ascension of ascending node: 344.2972°
argument of perigee: 129.7231°
revolutions per day: 14.10005391
mean anomaly at epoch: 8.5556°
orbit number at epoch: 99548

The dashed part of the orbit path shows where the satellite is in the earth's shadow,  

DLR